Location: ??
(35.5052°N, 139.7262°E)
Time: 19:42:17
(UTC+00:00)

Cosmos 1932 - Pass Details

Date: 23 October 2021
Orbit: 943 x 987 km, 65.0° (Epoch: 01 December)

Event Time Altitude Azimuth Distance (km) Brightness Sun altitude
Rises 08:37:07 0° 345° (NNW) 3,615 7.6 -9.0°
Reaches altitude 10° 08:41:04 10° 9° (N) 2,672 6.6 -9.8°
Maximum altitude 08:44:20 14° 41° (NE) 2,366 6.1 -10.5°
Enters shadow 08:46:37 12° 65° (ENE) 2,527 6.1 -10.9°
